Wetterdaten: Samstag, 19.09.2015
Datum Zeit Temp. A. Feuchte A. Luftdruck Regen Wind Richtung Richtung Sonnenschein ET UV Solar Taupunkt Windchill Windben Empfang
19.09.2015 00:02 12,1 C 89 % 1021,8 hPa 0,0 l/m 0,0 km/h (0 Bft) O-SO 103 0 min 0,000 mm 0,0 UV-I 0 W/m 10,3 C 12,1 C 0,0 km/h (0 Bft) 0,00 %
19.09.2015 00:07 12,0 C 89 % 1021,7 hPa 0,0 l/m 0,0 km/h (0 Bft) O 86 0 min 0,000 mm 0,0 UV-I 0 W/m 10,2 C 12,0 C 0,0 km/h (0 Bft) 0,00 %
19.09.2015 00:12 12,0 C 90 % 1021,8 hPa 0,0 l/m 0,0 km/h (0 Bft) O 83 0 min 0,000 mm 0,0 UV-I 0 W/m 10,4 C 12,0 C 0,0 km/h (0 Bft) 0,00 %
19.09.2015 00:17 11,9 C 90 % 1021,8 hPa 0,0 l/m 0,0 km/h (0 Bft) O-NO 64 0 min 0,000 mm 0,0 UV-I 0 W/m 10,3 C 11,9 C 0,0 km/h (0 Bft) 0,00 %
19.09.2015 00:22 11,8 C 90 % 1021,9 hPa 0,0 l/m 0,0 km/h (0 Bft) O-SO 107 0 min 0,000 mm 0,0 UV-I 0 W/m 10,2 C 11,8 C 0,0 km/h (0 Bft) 0,00 %
19.09.2015 00:27 11,8 C 90 % 1021,9 hPa 0,0 l/m 0,0 km/h (0 Bft) O 86 0 min 0,000 mm 0,0 UV-I 0 W/m 10,2 C 11,8 C 0,0 km/h (0 Bft) 0,00 %
19.09.2015 00:32 11,8 C 90 % 1022,0 hPa 0,0 l/m 0,0 km/h (0 Bft) O-NO 59 0 min 0,000 mm 0,0 UV-I 0 W/m 10,2 C 11,8 C 0,0 km/h (0 Bft) 0,00 %
19.09.2015 00:37 11,8 C 90 % 1022,1 hPa 0,0 l/m 0,0 km/h (0 Bft) O-NO 73 0 min 0,000 mm 0,0 UV-I 0 W/m 10,2 C 11,8 C 0,0 km/h (0 Bft) 0,00 %
19.09.2015 00:42 11,8 C 91 % 1021,9 hPa 0,0 l/m 0,0 km/h (0 Bft) O 87 0 min 0,000 mm 0,0 UV-I 0 W/m 10,4 C 11,8 C 0,0 km/h (0 Bft) 0,00 %
19.09.2015 00:47 11,8 C 91 % 1021,9 hPa 0,0 l/m 0,0 km/h (0 Bft) S 179 0 min 0,000 mm 0,0 UV-I 0 W/m 10,4 C 11,8 C 0,0 km/h (0 Bft) 0,00 %
19.09.2015 00:52 11,8 C 91 % 1022,0 hPa 0,0 l/m 0,0 km/h (0 Bft) O 93 0 min 0,000 mm 0,0 UV-I 0 W/m 10,4 C 11,8 C 0,0 km/h (0 Bft) 0,00 %
19.09.2015 00:57 11,9 C 91 % 1022,1 hPa 0,0 l/m 0,0 km/h (0 Bft) O 95 0 min 0,000 mm 0,0 UV-I 0 W/m 10,5 C 11,9 C 0,0 km/h (0 Bft) 0,00 %
19.09.2015 01:02 11,9 C 91 % 1022,1 hPa 0,0 l/m 0,0 km/h (0 Bft) O-NO 59 0 min 0,000 mm 0,0 UV-I 0 W/m 10,5 C 11,9 C 0,0 km/h (0 Bft) 0,00 %
19.09.2015 01:07 11,9 C 91 % 1021,9 hPa 0,0 l/m 0,0 km/h (0 Bft) O-NO 74 0 min 0,000 mm 0,0 UV-I 0 W/m 10,5 C 11,9 C 0,0 km/h (0 Bft) 0,00 %
19.09.2015 01:12 12,0 C 91 % 1022,1 hPa 0,0 l/m 0,0 km/h (0 Bft) S 190 0 min 0,000 mm 0,0 UV-I 0 W/m 10,6 C 12,0 C 0,0 km/h (0 Bft) 0,00 %
19.09.2015 01:17 12,0 C 91 % 1022,0 hPa 0,0 l/m 0,0 km/h (0 Bft) O 90 0 min 0,000 mm 0,0 UV-I 0 W/m 10,6 C 12,0 C 0,0 km/h (0 Bft) 0,00 %
19.09.2015 01:22 12,1 C 90 % 1022,0 hPa 0,0 l/m 0,0 km/h (0 Bft) S-SW 199 0 min 0,000 mm 0,0 UV-I 0 W/m 10,5 C 12,1 C 0,0 km/h (0 Bft) 0,00 %
19.09.2015 01:27 12,2 C 90 % 1021,9 hPa 0,0 l/m 0,0 km/h (0 Bft) O 85 0 min 0,000 mm 0,0 UV-I 0 W/m 10,6 C 12,2 C 0,0 km/h (0 Bft) 0,00 %
19.09.2015 01:32 12,2 C 90 % 1022,0 hPa 0,0 l/m 0,0 km/h (0 Bft) O 101 0 min 0,000 mm 0,0 UV-I 0 W/m 10,6 C 12,2 C 0,0 km/h (0 Bft) 0,00 %
19.09.2015 01:37 12,2 C 89 % 1022,0 hPa 0,0 l/m 0,0 km/h (0 Bft) S-SW 195 0 min 0,000 mm 0,0 UV-I 0 W/m 10,4 C 12,2 C 0,0 km/h (0 Bft) 0,00 %
19.09.2015 01:42 12,3 C 89 % 1022,0 hPa 0,0 l/m 1,8 km/h (1 Bft) S-SW 208 0 min 0,000 mm 0,0 UV-I 0 W/m 10,5 C 12,3 C 4,0 km/h (1 Bft) 0,00 %
19.09.2015 01:47 12,4 C 89 % 1022,1 hPa 0,0 l/m 0,0 km/h (0 Bft) S-SW 204 0 min 0,000 mm 0,0 UV-I 0 W/m 10,6 C 12,4 C 0,0 km/h (0 Bft) 0,00 %
19.09.2015 01:52 12,5 C 88 % 1022,1 hPa 0,0 l/m 0,0 km/h (0 Bft) O-NO 78 0 min 0,000 mm 0,0 UV-I 0 W/m 10,6 C 12,5 C 0,0 km/h (0 Bft) 0,00 %
19.09.2015 01:57 12,5 C 88 % 1022,2 hPa 0,0 l/m 0,0 km/h (0 Bft) O-SO 111 0 min 0,000 mm 0,0 UV-I 0 W/m 10,6 C 12,5 C 0,0 km/h (0 Bft) 0,00 %
19.09.2015 02:02 12,6 C 88 % 1022,0 hPa 0,0 l/m 0,4 km/h (0 Bft) SW 219 0 min 0,000 mm 0,0 UV-I 0 W/m 10,7 C 12,6 C 4,0 km/h (1 Bft) 0,00 %
19.09.2015 02:07 12,6 C 88 % 1022,0 hPa 0,0 l/m 0,0 km/h (0 Bft) O-NO 73 0 min 0,000 mm 0,0 UV-I 0 W/m 10,7 C 12,6 C 0,0 km/h (0 Bft) 0,00 %
19.09.2015 02:12 12,6 C 88 % 1022,2 hPa 0,0 l/m 0,0 km/h (0 Bft) O-SO 114 0 min 0,000 mm 0,0 UV-I 0 W/m 10,7 C 12,6 C 0,0 km/h (0 Bft) 0,00 %
19.09.2015 02:17 12,6 C 88 % 1022,2 hPa 0,0 l/m 0,0 km/h (0 Bft) O-NO 65 0 min 0,000 mm 0,0 UV-I 0 W/m 10,7 C 12,6 C 0,0 km/h (0 Bft) 0,00 %
19.09.2015 02:22 12,6 C 88 % 1022,2 hPa 0,0 l/m 0,0 km/h (0 Bft) O 101 0 min 0,000 mm 0,0 UV-I 0 W/m 10,7 C 12,6 C 0,0 km/h (0 Bft) 0,00 %
19.09.2015 02:27 12,6 C 88 % 1022,2 hPa 0,0 l/m 0,0 km/h (0 Bft) NO 49 0 min 0,000 mm 0,0 UV-I 0 W/m 10,7 C 12,6 C 0,0 km/h (0 Bft) 0,00 %
19.09.2015 02:32 12,5 C 88 % 1022,2 hPa 0,0 l/m 0,0 km/h (0 Bft) O 80 0 min 0,000 mm 0,0 UV-I 0 W/m 10,6 C 12,5 C 0,0 km/h (0 Bft) 0,00 %
19.09.2015 02:37 12,5 C 88 % 1022,2 hPa 0,0 l/m 0,0 km/h (0 Bft) O-NO 68 0 min 0,000 mm 0,0 UV-I 0 W/m 10,6 C 12,5 C 0,0 km/h (0 Bft) 0,00 %
19.09.2015 02:42 12,4 C 89 % 1022,0 hPa 0,0 l/m 0,0 km/h (0 Bft) NO 56 0 min 0,000 mm 0,0 UV-I 0 W/m 10,6 C 12,4 C 0,0 km/h (0 Bft) 0,00 %
19.09.2015 02:47 12,3 C 89 % 1022,0 hPa 0,0 l/m 0,0 km/h (0 Bft) O-NO 65 0 min 0,000 mm 0,0 UV-I 0 W/m 10,5 C 12,3 C 0,0 km/h (0 Bft) 0,00 %
19.09.2015 02:52 12,2 C 90 % 1022,1 hPa 0,0 l/m 0,0 km/h (0 Bft) O-NO 65 0 min 0,000 mm 0,0 UV-I 0 W/m 10,6 C 12,2 C 0,0 km/h (0 Bft) 0,00 %
19.09.2015 02:57 12,1 C 90 % 1022,1 hPa 0,0 l/m 0,0 km/h (0 Bft) O-NO 58 0 min 0,000 mm 0,0 UV-I 0 W/m 10,5 C 12,1 C 0,0 km/h (0 Bft) 0,00 %
19.09.2015 03:02 12,1 C 90 % 1022,1 hPa 0,0 l/m 0,0 km/h (0 Bft) NO 55 0 min 0,000 mm 0,0 UV-I 0 W/m 10,5 C 12,1 C 0,0 km/h (0 Bft) 0,00 %
19.09.2015 03:07 12,0 C 91 % 1022,2 hPa 0,0 l/m 0,0 km/h (0 Bft) O-NO 68 0 min 0,000 mm 0,0 UV-I 0 W/m 10,6 C 12,0 C 0,0 km/h (0 Bft) 0,00 %
19.09.2015 03:12 11,8 C 91 % 1022,2 hPa 0,0 l/m 0,0 km/h (0 Bft) O-NO 72 0 min 0,000 mm 0,0 UV-I 0 W/m 10,4 C 11,8 C 0,0 km/h (0 Bft) 0,00 %
19.09.2015 03:17 11,7 C 91 % 1022,4 hPa 0,0 l/m 0,0 km/h (0 Bft) O-NO 61 0 min 0,000 mm 0,0 UV-I 0 W/m 10,3 C 11,7 C 0,0 km/h (0 Bft) 0,00 %
19.09.2015 03:22 11,5 C 92 % 1022,2 hPa 0,0 l/m 0,0 km/h (0 Bft) O-NO 63 0 min 0,000 mm 0,0 UV-I 0 W/m 10,2 C 11,5 C 0,0 km/h (0 Bft) 0,00 %
19.09.2015 03:27 11,2 C 92 % 1022,2 hPa 0,0 l/m 0,0 km/h (0 Bft) O-NO 63 0 min 0,000 mm 0,0 UV-I 0 W/m 9,9 C 11,2 C 0,0 km/h (0 Bft) 0,00 %
19.09.2015 03:32 11,1 C 92 % 1022,3 hPa 0,0 l/m 0,0 km/h (0 Bft) O-SO 109 0 min 0,000 mm 0,0 UV-I 0 W/m 9,8 C 11,1 C 0,0 km/h (0 Bft) 0,00 %
19.09.2015 03:37 10,9 C 94 % 1022,4 hPa 0,0 l/m 0,0 km/h (0 Bft) O-NO 64 0 min 0,000 mm 0,0 UV-I 0 W/m 10,0 C 10,9 C 0,0 km/h (0 Bft) 0,00 %
19.09.2015 03:42 10,8 C 94 % 1022,4 hPa 0,0 l/m 0,0 km/h (0 Bft) O-NO 58 0 min 0,000 mm 0,0 UV-I 0 W/m 9,9 C 10,8 C 0,0 km/h (0 Bft) 0,00 %
19.09.2015 03:47 10,7 C 94 % 1022,3 hPa 0,0 l/m 0,0 km/h (0 Bft) O-NO 61 0 min 0,000 mm 0,0 UV-I 0 W/m 9,8 C 10,7 C 0,0 km/h (0 Bft) 0,00 %
19.09.2015 03:52 10,6 C 95 % 1022,3 hPa 0,0 l/m 0,0 km/h (0 Bft) O-NO 59 0 min 0,000 mm 0,0 UV-I 0 W/m 9,8 C 10,6 C 0,0 km/h (0 Bft) 0,00 %
19.09.2015 03:57 10,4 C 95 % 1022,2 hPa 0,0 l/m 0,0 km/h (0 Bft) O-SO 111 0 min 0,000 mm 0,0 UV-I 0 W/m 9,6 C 10,4 C 0,0 km/h (0 Bft) 0,00 %
19.09.2015 04:02 10,4 C 95 % 1022,2 hPa 0,0 l/m 0,0 km/h (0 Bft) O-NO 67 0 min 0,000 mm 0,0 UV-I 0 W/m 9,6 C 10,4 C 0,0 km/h (0 Bft) 0,00 %
19.09.2015 04:07 10,4 C 96 % 1022,3 hPa 0,0 l/m 0,0 km/h (0 Bft) O-NO 68 0 min 0,000 mm 0,0 UV-I 0 W/m 9,8 C 10,4 C 0,0 km/h (0 Bft) 0,00 %
19.09.2015 04:12 10,3 C 96 % 1022,3 hPa 0,0 l/m 0,0 km/h (0 Bft) O 96 0 min 0,000 mm 0,0 UV-I 0 W/m 9,7 C 10,3 C 0,0 km/h (0 Bft) 0,00 %
19.09.2015 04:17 10,3 C 96 % 1022,3 hPa 0,0 l/m 0,0 km/h (0 Bft) O 83 0 min 0,000 mm 0,0 UV-I 0 W/m 9,7 C 10,3 C 0,0 km/h (0 Bft) 0,00 %
19.09.2015 04:22 10,3 C 96 % 1022,2 hPa 0,0 l/m 0,0 km/h (0 Bft) O 82 0 min 0,000 mm 0,0 UV-I 0 W/m 9,7 C 10,3 C 0,0 km/h (0 Bft) 0,00 %
19.09.2015 04:27 10,2 C 97 % 1022,2 hPa 0,0 l/m 0,0 km/h (0 Bft) O 80 0 min 0,000 mm 0,0 UV-I 0 W/m 9,7 C 10,2 C 0,0 km/h (0 Bft) 0,00 %
19.09.2015 04:32 10,2 C 97 % 1022,2 hPa 0,0 l/m 0,0 km/h (0 Bft) O-NO 66 0 min 0,000 mm 0,0 UV-I 0 W/m 9,7 C 10,2 C 0,0 km/h (0 Bft) 0,00 %
19.09.2015 04:37 10,1 C 97 % 1022,0 hPa 0,0 l/m 0,0 km/h (0 Bft) O-NO 61 0 min 0,000 mm 0,0 UV-I 0 W/m 9,6 C 10,1 C 0,0 km/h (0 Bft) 0,00 %
19.09.2015 04:42 10,0 C 98 % 1022,3 hPa 0,0 l/m 0,0 km/h (0 Bft) O-NO 78 0 min 0,000 mm 0,0 UV-I 0 W/m 9,7 C 10,0 C 0,0 km/h (0 Bft) 0,00 %
19.09.2015 04:47 9,9 C 99 % 1022,2 hPa 0,0 l/m 0,0 km/h (0 Bft) O 98 0 min 0,000 mm 0,0 UV-I 0 W/m 9,8 C 9,9 C 0,0 km/h (0 Bft) 0,00 %
19.09.2015 04:52 9,9 C 99 % 1022,2 hPa 0,0 l/m 0,0 km/h (0 Bft) O-NO 70 0 min 0,000 mm 0,0 UV-I 0 W/m 9,8 C 9,9 C 0,0 km/h (0 Bft) 0,00 %
19.09.2015 04:57 9,9 C 98 % 1022,3 hPa 0,0 l/m 0,0 km/h (0 Bft) O 101 0 min 0,000 mm 0,0 UV-I 0 W/m 9,6 C 9,9 C 0,0 km/h (0 Bft) 0,00 %
19.09.2015 05:02 9,9 C 99 % 1022,2 hPa 0,0 l/m 0,0 km/h (0 Bft) S-SW 211 0 min 0,000 mm 0,0 UV-I 0 W/m 9,8 C 9,9 C 0,0 km/h (0 Bft) 0,00 %
19.09.2015 05:07 9,9 C 99 % 1022,2 hPa 0,0 l/m 0,0 km/h (0 Bft) O-NO 70 0 min 0,000 mm 0,0 UV-I 0 W/m 9,8 C 9,9 C 0,0 km/h (0 Bft) 0,00 %
19.09.2015 05:12 9,8 C 99 % 1022,1 hPa 0,0 l/m 0,0 km/h (0 Bft) O 83 0 min 0,000 mm 0,0 UV-I 0 W/m 9,7 C 9,8 C 0,0 km/h (0 Bft) 0,00 %
19.09.2015 05:17 9,7 C 99 % 1022,0 hPa 0,0 l/m 0,0 km/h (0 Bft) O-NO 68 0 min 0,000 mm 0,0 UV-I 0 W/m 9,6 C 9,7 C 0,0 km/h (0 Bft) 0,00 %
19.09.2015 05:22 9,6 C 99 % 1022,1 hPa 0,0 l/m 0,0 km/h (0 Bft) O-NO 65 0 min 0,000 mm 0,0 UV-I 0 W/m 9,5 C 9,6 C 0,0 km/h (0 Bft) 0,00 %
19.09.2015 05:27 9,6 C 99 % 1021,9 hPa 0,0 l/m 0,0 km/h (0 Bft) O 85 0 min 0,000 mm 0,0 UV-I 0 W/m 9,5 C 9,6 C 0,0 km/h (0 Bft) 0,00 %
19.09.2015 05:32 9,6 C 99 % 1022,1 hPa 0,0 l/m 0,0 km/h (0 Bft) O-NO 71 0 min 0,000 mm 0,0 UV-I 0 W/m 9,5 C 9,6 C 0,0 km/h (0 Bft) 0,00 %
19.09.2015 05:37 9,5 C 99 % 1022,1 hPa 0,0 l/m 0,0 km/h (0 Bft) O-NO 68 0 min 0,000 mm 0,0 UV-I 0 W/m 9,4 C 9,5 C 0,0 km/h (0 Bft) 0,00 %
19.09.2015 05:42 9,5 C 99 % 1022,2 hPa 0,0 l/m 0,0 km/h (0 Bft) O 79 0 min 0,000 mm 0,0 UV-I 0 W/m 9,4 C 9,5 C 0,0 km/h (0 Bft) 0,00 %
19.09.2015 05:47 9,5 C 99 % 1022,1 hPa 0,0 l/m 0,0 km/h (0 Bft) O-NO 65 0 min 0,000 mm 0,0 UV-I 0 W/m 9,4 C 9,5 C 0,0 km/h (0 Bft) 0,00 %
19.09.2015 05:52 9,5 C 99 % 1022,2 hPa 0,0 l/m 0,0 km/h (0 Bft) O-NO 74 0 min 0,000 mm 0,0 UV-I 0 W/m 9,4 C 9,5 C 0,0 km/h (0 Bft) 0,00 %
19.09.2015 05:57 9,4 C 99 % 1022,1 hPa 0,0 l/m 0,0 km/h (0 Bft) O-NO 70 0 min 0,000 mm 0,0 UV-I 0 W/m 9,3 C 9,4 C 0,0 km/h (0 Bft) 0,00 %
19.09.2015 06:02 9,4 C 99 % 1022,2 hPa 0,0 l/m 0,0 km/h (0 Bft) O-NO 67 0 min 0,000 mm 0,0 UV-I 0 W/m 9,3 C 9,4 C 0,0 km/h (0 Bft) 0,00 %
19.09.2015 06:07 9,3 C 99 % 1022,1 hPa 0,0 l/m 0,0 km/h (0 Bft) O 85 0 min 0,000 mm 0,0 UV-I 0 W/m 9,2 C 9,3 C 0,0 km/h (0 Bft) 0,00 %
19.09.2015 06:12 9,1 C 99 % 1022,2 hPa 0,0 l/m 0,0 km/h (0 Bft) O-NO 64 0 min 0,000 mm 0,0 UV-I 0 W/m 9,0 C 9,1 C 0,0 km/h (0 Bft) 0,00 %
19.09.2015 06:17 9,0 C 99 % 1022,1 hPa 0,0 l/m 0,0 km/h (0 Bft) O-NO 62 0 min 0,000 mm 0,0 UV-I 0 W/m 8,9 C 9,0 C 0,0 km/h (0 Bft) 0,00 %
19.09.2015 06:22 9,0 C 99 % 1022,2 hPa 0,0 l/m 0,0 km/h (0 Bft) O 86 0 min 0,000 mm 0,0 UV-I 0 W/m 8,9 C 9,0 C 0,0 km/h (0 Bft) 0,00 %
19.09.2015 06:27 9,0 C 99 % 1022,3 hPa 0,0 l/m 0,0 km/h (0 Bft) O-NO 62 0 min 0,000 mm 0,0 UV-I 0 W/m 8,9 C 9,0 C 0,0 km/h (0 Bft) 0,00 %
19.09.2015 06:32 9,0 C 99 % 1022,3 hPa 0,0 l/m 0,0 km/h (0 Bft) O 101 0 min 0,000 mm 0,0 UV-I 0 W/m 8,9 C 9,0 C 0,0 km/h (0 Bft) 0,00 %
19.09.2015 06:37 9,0 C 99 % 1022,2 hPa 0,0 l/m 0,0 km/h (0 Bft) S 176 0 min 0,000 mm 0,0 UV-I 0 W/m 8,9 C 9,0 C 0,0 km/h (0 Bft) 0,00 %
19.09.2015 06:42 9,0 C 99 % 1022,3 hPa 0,0 l/m 0,0 km/h (0 Bft) O 99 0 min 0,000 mm 0,0 UV-I 0 W/m 8,9 C 9,0 C 0,0 km/h (0 Bft) 0,00 %
19.09.2015 06:47 9,1 C 99 % 1022,4 hPa 0,0 l/m 0,0 km/h (0 Bft) O-NO 76 0 min 0,000 mm 0,0 UV-I 0 W/m 9,0 C 9,1 C 0,0 km/h (0 Bft) 0,00 %
19.09.2015 06:52 9,1 C 99 % 1022,3 hPa 0,0 l/m 0,0 km/h (0 Bft) O-NO 75 0 min 0,000 mm 0,0 UV-I 2 W/m 9,0 C 9,1 C 0,0 km/h (0 Bft) 0,00 %
19.09.2015 06:57 9,0 C 99 % 1022,3 hPa 0,0 l/m 0,0 km/h (0 Bft) O-NO 64 0 min 0,000 mm 0,0 UV-I 7 W/m 8,9 C 9,0 C 0,0 km/h (0 Bft) 0,00 %
19.09.2015 07:02 8,9 C 99 % 1022,4 hPa 0,0 l/m 0,0 km/h (0 Bft) O-NO 72 0 min 0,000 mm 0,0 UV-I 10 W/m 8,8 C 8,9 C 0,0 km/h (0 Bft) 0,00 %
19.09.2015 07:07 8,7 C 99 % 1022,3 hPa 0,0 l/m 0,0 km/h (0 Bft) O-NO 71 0 min 0,000 mm 0,0 UV-I 20 W/m 8,6 C 8,7 C 0,0 km/h (0 Bft) 0,00 %
19.09.2015 07:12 8,8 C 99 % 1022,4 hPa 0,0 l/m 0,0 km/h (0 Bft) O 99 0 min 0,000 mm 0,0 UV-I 24 W/m 8,7 C 8,8 C 0,0 km/h (0 Bft) 0,00 %
19.09.2015 07:17 8,9 C 99 % 1022,4 hPa 0,0 l/m 0,0 km/h (0 Bft) O-NO 65 0 min 0,000 mm 0,0 UV-I 32 W/m 8,8 C 8,9 C 0,0 km/h (0 Bft) 0,00 %
19.09.2015 07:22 9,1 C 99 % 1022,5 hPa 0,0 l/m 0,0 km/h (0 Bft) O-SO 108 0 min 0,000 mm 0,0 UV-I 35 W/m 9,0 C 9,1 C 0,0 km/h (0 Bft) 0,00 %
19.09.2015 07:27 9,2 C 99 % 1022,5 hPa 0,0 l/m 0,0 km/h (0 Bft) O 99 0 min 0,000 mm 0,0 UV-I 35 W/m 9,1 C 9,2 C 0,0 km/h (0 Bft) 0,00 %
19.09.2015 07:32 9,4 C 99 % 1022,5 hPa 0,0 l/m 0,0 km/h (0 Bft) O 99 0 min 0,000 mm 0,0 UV-I 40 W/m 9,3 C 9,4 C 0,0 km/h (0 Bft) 0,00 %
19.09.2015 07:37 9,5 C 99 % 1022,6 hPa 0,0 l/m 0,0 km/h (0 Bft) O 99 0 min 0,000 mm 0,0 UV-I 45 W/m 9,4 C 9,5 C 0,0 km/h (0 Bft) 0,00 %
19.09.2015 07:42 9,5 C 99 % 1022,5 hPa 0,0 l/m 0,0 km/h (0 Bft) O-SO 102 0 min 0,000 mm 0,0 UV-I 48 W/m 9,4 C 9,5 C 0,0 km/h (0 Bft) 0,00 %
19.09.2015 07:47 9,5 C 99 % 1022,6 hPa 0,0 l/m 0,0 km/h (0 Bft) O 96 0 min 0,000 mm 0,0 UV-I 62 W/m 9,4 C 9,5 C 0,0 km/h (0 Bft) 0,00 %
19.09.2015 07:52 9,5 C 99 % 1022,6 hPa 0,0 l/m 0,0 km/h (0 Bft) O-SO 117 0 min 0,000 mm 0,0 UV-I 70 W/m 9,4 C 9,5 C 0,0 km/h (0 Bft) 0,00 %
19.09.2015 07:57 9,6 C 99 % 1022,5 hPa 0,0 l/m 0,0 km/h (0 Bft) SO 127 0 min 0,000 mm 0,0 UV-I 82 W/m 9,5 C 9,6 C 0,0 km/h (0 Bft) 0,00 %
19.09.2015 08:02 9,8 C 98 % 1022,5 hPa 0,0 l/m 0,0 km/h (0 Bft) O 79 0 min 0,000 mm 0,0 UV-I 83 W/m 9,5 C 9,8 C 0,0 km/h (0 Bft) 0,00 %
19.09.2015 08:07 10,1 C 98 % 1022,6 hPa 0,0 l/m 0,0 km/h (0 Bft) O 87 0 min 0,000 mm 0,0 UV-I 88 W/m 9,8 C 10,1 C 0,0 km/h (0 Bft) 0,00 %
19.09.2015 08:12 10,4 C 98 % 1022,5 hPa 0,0 l/m 0,0 km/h (0 Bft) O-SO 113 0 min 0,000 mm 0,0 UV-I 86 W/m 10,1 C 10,4 C 0,0 km/h (0 Bft) 0,00 %
19.09.2015 08:17 10,6 C 98 % 1022,6 hPa 0,0 l/m 0,0 km/h (0 Bft) O 96 0 min 0,000 mm 1,0 UV-I 96 W/m 10,3 C 10,6 C 0,0 km/h (0 Bft) 0,00 %
19.09.2015 08:22 10,8 C 97 % 1022,7 hPa 0,0 l/m 0,0 km/h (0 Bft) O 84 0 min 0,000 mm 1,0 UV-I 105 W/m 10,3 C 10,8 C 0,0 km/h (0 Bft) 0,00 %
19.09.2015 08:27 11,0 C 97 % 1022,7 hPa 0,0 l/m 0,4 km/h (0 Bft) S 187 0 min 0,000 mm 1,0 UV-I 125 W/m 10,5 C 11,0 C 4,0 km/h (1 Bft) 0,00 %
19.09.2015 08:32 11,3 C 97 % 1022,8 hPa 0,0 l/m 0,7 km/h (0 Bft) S-SW 212 0 min 0,000 mm 1,0 UV-I 132 W/m 10,8 C 11,3 C 4,0 km/h (1 Bft) 0,00 %
19.09.2015 08:37 11,8 C 96 % 1022,6 hPa 0,0 l/m 0,0 km/h (0 Bft) O 93 0 min 0,000 mm 1,0 UV-I 160 W/m 11,2 C 11,8 C 0,0 km/h (0 Bft) 0,00 %
19.09.2015 08:42 12,2 C 94 % 1022,8 hPa 0,0 l/m 0,0 km/h (0 Bft) O-NO 72 0 min 0,000 mm 1,0 UV-I 136 W/m 11,3 C 12,2 C 0,0 km/h (0 Bft) 0,00 %
19.09.2015 08:47 12,7 C 91 % 1022,9 hPa 0,0 l/m 0,0 km/h (0 Bft) O-NO 71 0 min 0,000 mm 1,0 UV-I 162 W/m 11,3 C 12,7 C 0,0 km/h (0 Bft) 0,00 %
19.09.2015 08:52 13,1 C 88 % 1022,9 hPa 0,0 l/m 0,0 km/h (0 Bft) W 274 0 min 0,000 mm 1,0 UV-I 147 W/m 11,2 C 13,1 C 0,0 km/h (0 Bft) 0,00 %
19.09.2015 08:57 13,4 C 85 % 1022,7 hPa 0,0 l/m 0,0 km/h (0 Bft) O-NO 74 0 min 0,000 mm 1,0 UV-I 139 W/m 10,9 C 13,4 C 0,0 km/h (0 Bft) 0,00 %
19.09.2015 09:02 13,7 C 84 % 1022,7 hPa 0,0 l/m 0,0 km/h (0 Bft) O-NO 71 0 min 0,000 mm 1,0 UV-I 166 W/m 11,0 C 13,7 C 0,0 km/h (0 Bft) 0,00 %
19.09.2015 09:07 13,9 C 82 % 1022,8 hPa 0,0 l/m 0,0 km/h (0 Bft) W 281 0 min 0,000 mm 1,0 UV-I 175 W/m 10,9 C 13,9 C 0,0 km/h (0 Bft) 0,00 %
19.09.2015 09:12 14,1 C 82 % 1022,6 hPa 0,0 l/m 0,0 km/h (0 Bft) S 180 0 min 0,000 mm 1,0 UV-I 177 W/m 11,1 C 14,1 C 0,0 km/h (0 Bft) 0,00 %
19.09.2015 09:17 14,2 C 81 % 1022,8 hPa 0,0 l/m 1,4 km/h (1 Bft) S 179 0 min 0,000 mm 1,0 UV-I 169 W/m 11,0 C 14,2 C 4,0 km/h (1 Bft) 0,00 %
19.09.2015 09:22 14,3 C 81 % 1022,7 hPa 0,0 l/m 0,0 km/h (0 Bft) O-SO 107 0 min 0,000 mm 1,0 UV-I 153 W/m 11,1 C 14,3 C 0,0 km/h (0 Bft) 0,00 %
19.09.2015 09:27 14,4 C 80 % 1022,8 hPa 0,0 l/m 1,4 km/h (1 Bft) SW 228 0 min 0,000 mm 1,0 UV-I 148 W/m 11,0 C 14,4 C 4,0 km/h (1 Bft) 0,00 %
19.09.2015 09:32 14,4 C 81 % 1022,6 hPa 0,0 l/m 0,0 km/h (0 Bft) O 83 0 min 0,000 mm 1,0 UV-I 143 W/m 11,2 C 14,4 C 0,0 km/h (0 Bft) 0,00 %
19.09.2015 09:37 14,3 C 80 % 1022,6 hPa 0,0 l/m 0,4 km/h (0 Bft) O-SO 111 0 min 0,000 mm 1,0 UV-I 153 W/m 10,9 C 14,3 C 4,0 km/h (1 Bft) 0,00 %
19.09.2015 09:42 14,3 C 80 % 1022,9 hPa 0,0 l/m 0,0 km/h (0 Bft) O 79 0 min 0,000 mm 1,0 UV-I 185 W/m 10,9 C 14,3 C 0,0 km/h (0 Bft) 0,00 %
19.09.2015 09:47 14,3 C 80 % 1023,0 hPa 0,0 l/m 1,4 km/h (1 Bft) O-SO 120 0 min 0,000 mm 1,0 UV-I 198 W/m 10,9 C 14,3 C 4,0 km/h (1 Bft) 0,00 %
19.09.2015 09:52 14,3 C 80 % 1022,1 hPa 0,0 l/m 0,0 km/h (0 Bft) O 89 0 min 0,000 mm 1,0 UV-I 208 W/m 10,9 C 14,3 C 0,0 km/h (0 Bft) 0,00 %
19.09.2015 09:57 14,5 C 80 % 1021,9 hPa 0,0 l/m 0,0 km/h (0 Bft) O 96 0 min 0,000 mm 1,0 UV-I 229 W/m 11,1 C 14,5 C 0,0 km/h (0 Bft) 0,00 %
19.09.2015 10:02 14,8 C 78 % 1021,9 hPa 0,0 l/m 0,0 km/h (0 Bft) O-SO 115 0 min 0,000 mm 1,0 UV-I 253 W/m 11,0 C 14,8 C 0,0 km/h (0 Bft) 0,00 %
19.09.2015 10:07 15,1 C 76 % 1021,9 hPa 0,0 l/m 0,0 km/h (0 Bft) O-SO 108 0 min 0,000 mm 1,0 UV-I 244 W/m 10,9 C 15,1 C 0,0 km/h (0 Bft) 0,00 %
19.09.2015 10:12 15,4 C 74 % 1021,8 hPa 0,0 l/m 0,0 km/h (0 Bft) NO 56 0 min 0,000 mm 1,0 UV-I 241 W/m 10,8 C 15,4 C 0,0 km/h (0 Bft) 0,00 %
19.09.2015 10:17 15,6 C 73 % 1021,8 hPa 0,0 l/m 0,0 km/h (0 Bft) S-SO 158 0 min 0,000 mm 1,0 UV-I 212 W/m 10,8 C 15,6 C 0,0 km/h (0 Bft) 0,00 %
19.09.2015 10:22 15,8 C 71 % 1021,7 hPa 0,0 l/m 0,0 km/h (0 Bft) O-SO 121 0 min 0,000 mm 1,0 UV-I 220 W/m 10,6 C 15,8 C 0,0 km/h (0 Bft) 0,00 %
19.09.2015 10:27 16,0 C 71 % 1021,5 hPa 0,0 l/m 0,4 km/h (0 Bft) SW 235 5 min 0,000 mm 1,0 UV-I 308 W/m 10,7 C 16,0 C 4,0 km/h (1 Bft) 0,00 %
19.09.2015 10:32 16,1 C 71 % 1021,6 hPa 0,0 l/m 3,2 km/h (1 Bft) S-SW 203 0 min 0,000 mm 1,0 UV-I 282 W/m 10,8 C 16,1 C 4,0 km/h (1 Bft) 0,00 %
19.09.2015 10:37 16,2 C 71 % 1021,7 hPa 0,0 l/m 0,0 km/h (0 Bft) O-SO 118 0 min 0,000 mm 1,0 UV-I 287 W/m 10,9 C 16,2 C 0,0 km/h (0 Bft) 0,00 %
19.09.2015 10:42 16,3 C 71 % 1021,7 hPa 0,0 l/m 0,0 km/h (0 Bft) O-SO 111 0 min 0,000 mm 1,0 UV-I 257 W/m 11,0 C 16,3 C 0,0 km/h (0 Bft) 0,00 %
19.09.2015 10:47 16,6 C 69 % 1021,5 hPa 0,0 l/m 0,0 km/h (0 Bft) NO 47 0 min 0,000 mm 1,0 UV-I 251 W/m 10,9 C 16,6 C 0,0 km/h (0 Bft) 0,00 %
19.09.2015 10:52 16,8 C 69 % 1021,8 hPa 0,0 l/m 0,0 km/h (0 Bft) SO 140 0 min 0,000 mm 1,0 UV-I 274 W/m 11,1 C 16,8 C 0,0 km/h (0 Bft) 0,00 %
19.09.2015 10:57 16,9 C 70 % 1021,7 hPa 0,0 l/m 0,0 km/h (0 Bft) O-NO 75 0 min 0,000 mm 1,0 UV-I 278 W/m 11,4 C 16,9 C 0,0 km/h (0 Bft) 0,00 %
19.09.2015 11:02 16,9 C 68 % 1021,8 hPa 0,0 l/m 0,0 km/h (0 Bft) O-NO 68 5 min 0,000 mm 2,0 UV-I 393 W/m 11,0 C 16,9 C 0,0 km/h (0 Bft) 0,00 %
19.09.2015 11:07 16,9 C 68 % 1021,5 hPa 0,0 l/m 0,0 km/h (0 Bft) NO 55 5 min 0,000 mm 2,0 UV-I 351 W/m 11,0 C 16,9 C 0,0 km/h (0 Bft) 0,00 %
19.09.2015 11:12 17,0 C 68 % 1021,3 hPa 0,0 l/m 0,0 km/h (0 Bft) O-NO 65 5 min 0,000 mm 2,0 UV-I 388 W/m 11,0 C 17,0 C 0,0 km/h (0 Bft) 0,00 %
19.09.2015 11:17 17,3 C 65 % 1021,6 hPa 0,0 l/m 0,0 km/h (0 Bft) O 100 0 min 0,000 mm 2,0 UV-I 342 W/m 10,7 C 17,3 C 0,0 km/h (0 Bft) 0,00 %
19.09.2015 11:22 17,7 C 64 % 1021,4 hPa 0,0 l/m 0,0 km/h (0 Bft) NO 36 5 min 0,000 mm 2,0 UV-I 551 W/m 10,8 C 17,7 C 0,0 km/h (0 Bft) 0,00 %
19.09.2015 11:27 18,1 C 62 % 1021,3 hPa 0,0 l/m 0,4 km/h (0 Bft) NW 321 5 min 0,000 mm 2,0 UV-I 574 W/m 10,7 C 18,1 C 4,0 km/h (1 Bft) 0,00 %
19.09.2015 11:32 18,7 C 61 % 1021,4 hPa 0,0 l/m 0,4 km/h (0 Bft) O-NO 63 5 min 0,000 mm 2,0 UV-I 536 W/m 11,0 C 18,7 C 4,0 km/h (1 Bft) 0,00 %
19.09.2015 11:37 19,0 C 60 % 1021,4 hPa 0,0 l/m 0,0 km/h (0 Bft) O-NO 75 0 min 0,000 mm 2,0 UV-I 317 W/m 11,1 C 19,0 C 0,0 km/h (0 Bft) 0,00 %
19.09.2015 11:42 19,2 C 60 % 1021,4 hPa 0,0 l/m 0,4 km/h (0 Bft) N 353 5 min 0,000 mm 2,0 UV-I 384 W/m 11,2 C 19,2 C 4,0 km/h (1 Bft) 0,00 %
19.09.2015 11:47 19,1 C 61 % 1021,4 hPa 0,0 l/m 2,2 km/h (1 Bft) N-NW 347 5 min 0,000 mm 2,0 UV-I 381 W/m 11,4 C 19,1 C 4,0 km/h (1 Bft) 0,00 %
19.09.2015 11:52 18,7 C 61 % 1021,3 hPa 0,0 l/m 0,0 km/h (0 Bft) SO 140 5 min 0,000 mm 2,0 UV-I 390 W/m 11,0 C 18,7 C 0,0 km/h (0 Bft) 0,00 %
19.09.2015 11:57 18,7 C 60 % 1021,2 hPa 0,0 l/m 3,2 km/h (1 Bft) N 355 5 min 0,000 mm 2,0 UV-I 368 W/m 10,8 C 18,7 C 7,9 km/h (2 Bft) 0,00 %
19.09.2015 12:02 18,9 C 61 % 1021,1 hPa 0,0 l/m 0,0 km/h (0 Bft) O 100 5 min 0,000 mm 2,0 UV-I 546 W/m 11,2 C 18,9 C 0,0 km/h (0 Bft) 0,00 %
19.09.2015 12:07 18,7 C 61 % 1021,1 hPa 0,0 l/m 2,2 km/h (1 Bft) N-NO 32 5 min 0,000 mm 2,0 UV-I 666 W/m 11,0 C 18,7 C 4,0 km/h (1 Bft) 0,00 %
19.09.2015 12:12 18,6 C 59 % 1020,9 hPa 0,0 l/m 0,0 km/h (0 Bft) NO 56 5 min 0,000 mm 2,0 UV-I 581 W/m 10,4 C 18,6 C 0,0 km/h (0 Bft) 0,00 %
19.09.2015 12:17 18,8 C 58 % 1021,1 hPa 0,0 l/m 0,0 km/h (0 Bft) O 89 5 min 0,000 mm 2,0 UV-I 419 W/m 10,4 C 18,8 C 0,0 km/h (0 Bft) 0,00 %
19.09.2015 12:22 19,0 C 55 % 1020,7 hPa 0,0 l/m 0,0 km/h (0 Bft) NO 44 5 min 0,000 mm 2,0 UV-I 672 W/m 9,8 C 19,0 C 0,0 km/h (0 Bft) 0,00 %
19.09.2015 12:27 19,0 C 55 % 1020,9 hPa 0,0 l/m 0,0 km/h (0 Bft) O-SO 106 5 min 0,000 mm 2,0 UV-I 413 W/m 9,8 C 19,0 C 0,0 km/h (0 Bft) 0,00 %
19.09.2015 12:32 19,2 C 53 % 1020,8 hPa 0,0 l/m 0,0 km/h (0 Bft) O 91 5 min 0,000 mm 2,0 UV-I 447 W/m 9,4 C 19,2 C 0,0 km/h (0 Bft) 0,00 %
19.09.2015 12:37 19,6 C 52 % 1020,9 hPa 0,0 l/m 0,0 km/h (0 Bft) O-NO 62 5 min 0,000 mm 2,0 UV-I 390 W/m 9,5 C 19,6 C 0,0 km/h (0 Bft) 0,00 %
19.09.2015 12:42 19,9 C 52 % 1020,8 hPa 0,0 l/m 0,0 km/h (0 Bft) N-NO 31 5 min 0,000 mm 2,0 UV-I 428 W/m 9,7 C 19,9 C 0,0 km/h (0 Bft) 0,00 %
19.09.2015 12:47 19,6 C 53 % 1020,6 hPa 0,0 l/m 0,0 km/h (0 Bft) O 82 5 min 0,000 mm 2,0 UV-I 750 W/m 9,8 C 19,6 C 0,0 km/h (0 Bft) 0,00 %
19.09.2015 12:52 19,5 C 52 % 1020,6 hPa 0,0 l/m 0,0 km/h (0 Bft) O-NO 65 5 min 0,000 mm 2,0 UV-I 714 W/m 9,4 C 19,5 C 0,0 km/h (0 Bft) 0,00 %
19.09.2015 12:57 19,8 C 52 % 1020,5 hPa 0,0 l/m 0,0 km/h (0 Bft) O-NO 65 5 min 0,000 mm 2,0 UV-I 494 W/m 9,7 C 19,8 C 0,0 km/h (0 Bft) 0,00 %
19.09.2015 13:02 20,0 C 51 % 1020,6 hPa 0,0 l/m 0,0 km/h (0 Bft) O 80 5 min 0,000 mm 3,0 UV-I 893 W/m 9,6 C 20,0 C 0,0 km/h (0 Bft) 0,00 %
19.09.2015 13:08 20,1 C 50 % 1020,7 hPa 0,0 l/m 0,0 km/h (0 Bft) NO 55 6 min 0,000 mm 2,0 UV-I 484 W/m 9,3 C 20,1 C 0,0 km/h (0 Bft) 0,00 %
19.09.2015 13:13 20,4 C 49 % 1020,6 hPa 0,0 l/m 0,0 km/h (0 Bft) O-NO 58 5 min 0,000 mm 2,0 UV-I 387 W/m 9,3 C 20,4 C 0,0 km/h (0 Bft) 0,00 %
19.09.2015 13:18 20,4 C 51 % 1020,6 hPa 0,0 l/m 0,7 km/h (0 Bft) N 356 5 min 0,000 mm 2,0 UV-I 387 W/m 9,9 C 20,4 C 4,0 km/h (1 Bft) 0,00 %
19.09.2015 13:23 20,0 C 52 % 1020,5 hPa 0,0 l/m 0,0 km/h (0 Bft) NO 46 0 min 0,000 mm 1,0 UV-I 328 W/m 9,8 C 20,0 C 0,0 km/h (0 Bft) 0,00 %
19.09.2015 13:28 19,7 C 53 % 1020,5 hPa 0,0 l/m 0,0 km/h (0 Bft) NO 54 0 min 0,000 mm 1,0 UV-I 345 W/m 9,8 C 19,7 C 0,0 km/h (0 Bft) 0,00 %
19.09.2015 13:33 19,7 C 51 % 1020,3 hPa 0,0 l/m 0,0 km/h (0 Bft) O-SO 104 5 min 0,000 mm 2,0 UV-I 754 W/m 9,3 C 19,7 C 0,0 km/h (0 Bft) 0,00 %
19.09.2015 13:38 20,0 C 50 % 1020,3 hPa 0,0 l/m 0,4 km/h (0 Bft) O-NO 59 5 min 0,000 mm 2,0 UV-I 684 W/m 9,3 C 20,0 C 4,0 km/h (1 Bft) 0,00 %
19.09.2015 13:43 20,0 C 52 % 1020,4 hPa 0,0 l/m 4,7 km/h (1 Bft) NO 49 5 min 0,000 mm 2,0 UV-I 442 W/m 9,8 C 20,0 C 7,9 km/h (2 Bft) 0,00 %
19.09.2015 13:48 19,7 C 52 % 1021,1 hPa 0,0 l/m 1,4 km/h (1 Bft) O-NO 66 5 min 0,000 mm 2,0 UV-I 431 W/m 9,6 C 19,7 C 4,0 km/h (1 Bft) 0,00 %
19.09.2015 13:53 19,7 C 50 % 1020,9 hPa 0,0 l/m 0,0 km/h (0 Bft) O 97 5 min 0,000 mm 2,0 UV-I 500 W/m 9,0 C 19,7 C 0,0 km/h (0 Bft) 0,00 %
19.09.2015 13:58 20,2 C 49 % 1021,0 hPa 0,0 l/m 2,9 km/h (1 Bft) O-NO 57 5 min 0,000 mm 2,0 UV-I 413 W/m 9,1 C 20,2 C 4,0 km/h (1 Bft) 0,00 %
19.09.2015 14:03 20,5 C 49 % 1020,9 hPa 0,0 l/m 0,0 km/h (0 Bft) O-NO 58 5 min 0,000 mm 2,0 UV-I 898 W/m 9,4 C 20,5 C 0,0 km/h (0 Bft) 0,00 %
19.09.2015 14:08 20,6 C 46 % 1021,0 hPa 0,0 l/m 2,2 km/h (1 Bft) NO 52 5 min 0,000 mm 2,0 UV-I 447 W/m 8,6 C 20,6 C 4,0 km/h (1 Bft) 0,00 %
19.09.2015 14:13 20,7 C 49 % 1020,8 hPa 0,0 l/m 0,0 km/h (0 Bft) NO 54 5 min 0,000 mm 2,0 UV-I 437 W/m 9,6 C 20,7 C 0,0 km/h (0 Bft) 0,00 %
19.09.2015 14:18 20,2 C 50 % 1019,7 hPa 0,0 l/m 0,0 km/h (0 Bft) N-NO 32 5 min 0,000 mm 1,0 UV-I 369 W/m 9,4 C 20,2 C 0,0 km/h (0 Bft) 0,00 %
19.09.2015 14:23 20,1 C 49 % 1019,8 hPa 0,0 l/m 0,7 km/h (0 Bft) NO 38 5 min 0,000 mm 2,0 UV-I 505 W/m 9,0 C 20,1 C 4,0 km/h (1 Bft) 0,00 %
19.09.2015 14:28 20,4 C 47 % 1019,7 hPa 0,0 l/m 0,0 km/h (0 Bft) N-NW 348 5 min 0,000 mm 2,0 UV-I 594 W/m 8,7 C 20,4 C 0,0 km/h (0 Bft) 0,00 %
19.09.2015 14:33 20,8 C 43 % 1019,7 hPa 0,0 l/m 0,0 km/h (0 Bft) NO 43 5 min 0,000 mm 2,0 UV-I 674 W/m 7,8 C 20,8 C 0,0 km/h (0 Bft) 0,00 %
19.09.2015 14:38 21,3 C 43 % 1019,6 hPa 0,0 l/m 0,0 km/h (0 Bft) O 92 5 min 0,000 mm 2,0 UV-I 565 W/m 8,2 C 21,3 C 0,0 km/h (0 Bft) 0,00 %
19.09.2015 14:43 21,9 C 43 % 1019,6 hPa 0,0 l/m 0,0 km/h (0 Bft) NO 37 5 min 0,000 mm 2,0 UV-I 475 W/m 8,7 C 21,9 C 0,0 km/h (0 Bft) 0,00 %
19.09.2015 14:48 22,1 C 43 % 1019,6 hPa 0,0 l/m 1,4 km/h (1 Bft) N 354 5 min 0,000 mm 2,0 UV-I 470 W/m 8,9 C 22,1 C 4,0 km/h (1 Bft) 0,00 %
19.09.2015 14:53 21,8 C 43 % 1019,6 hPa 0,0 l/m 0,4 km/h (0 Bft) O-SO 108 0 min 0,000 mm 1,0 UV-I 321 W/m 8,7 C 21,8 C 4,0 km/h (1 Bft) 0,00 %
19.09.2015 14:58 21,3 C 43 % 1019,5 hPa 0,0 l/m 1,8 km/h (1 Bft) N 350 0 min 0,000 mm 1,0 UV-I 242 W/m 8,2 C 21,3 C 4,0 km/h (1 Bft) 0,00 %
19.09.2015 15:03 20,8 C 46 % 1019,3 hPa 0,0 l/m 0,0 km/h (0 Bft) O-NO 71 0 min 0,000 mm 1,0 UV-I 226 W/m 8,8 C 20,8 C 0,0 km/h (0 Bft) 0,00 %
19.09.2015 15:08 20,2 C 48 % 1019,4 hPa 0,0 l/m 0,0 km/h (0 Bft) O-NO 66 0 min 0,000 mm 1,0 UV-I 236 W/m 8,8 C 20,2 C 0,0 km/h (0 Bft) 0,00 %
19.09.2015 15:13 19,9 C 50 % 1019,4 hPa 0,0 l/m 0,0 km/h (0 Bft) N 355 0 min 0,000 mm 1,0 UV-I 253 W/m 9,2 C 19,9 C 0,0 km/h (0 Bft) 0,00 %
19.09.2015 15:18 19,8 C 49 % 1019,1 hPa 0,0 l/m 0,0 km/h (0 Bft) N-NO 30 0 min 0,000 mm 1,0 UV-I 254 W/m 8,8 C 19,8 C 0,0 km/h (0 Bft) 0,00 %
19.09.2015 15:23 19,8 C 49 % 1019,3 hPa 0,0 l/m 0,0 km/h (0 Bft) O-NO 60 0 min 0,000 mm 1,0 UV-I 224 W/m 8,8 C 19,8 C 0,0 km/h (0 Bft) 0,00 %
19.09.2015 15:28 19,8 C 50 % 1019,3 hPa 0,0 l/m 0,0 km/h (0 Bft) O-NO 68 0 min 0,000 mm 1,0 UV-I 206 W/m 9,1 C 19,8 C 0,0 km/h (0 Bft) 0,00 %
19.09.2015 15:33 19,8 C 50 % 1019,0 hPa 0,0 l/m 0,0 km/h (0 Bft) SW 217 0 min 0,000 mm 1,0 UV-I 227 W/m 9,1 C 19,8 C 0,0 km/h (0 Bft) 0,00 %
19.09.2015 15:38 19,9 C 49 % 1019,1 hPa 0,0 l/m 0,0 km/h (0 Bft) O-NO 73 0 min 0,000 mm 1,0 UV-I 224 W/m 8,9 C 19,9 C 0,0 km/h (0 Bft) 0,00 %
19.09.2015 15:43 20,2 C 46 % 1019,1 hPa 0,0 l/m 0,0 km/h (0 Bft) O-SO 109 0 min 0,000 mm 1,0 UV-I 230 W/m 8,2 C 20,2 C 0,0 km/h (0 Bft) 0,00 %
19.09.2015 15:48 20,5 C 51 % 1019,1 hPa 0,0 l/m 0,0 km/h (0 Bft) O-NO 67 0 min 0,000 mm 1,0 UV-I 225 W/m 10,0 C 20,5 C 0,0 km/h (0 Bft) 0,00 %
19.09.2015 15:53 20,6 C 48 % 1019,2 hPa 0,0 l/m 0,0 km/h (0 Bft) O-NO 59 0 min 0,000 mm 1,0 UV-I 200 W/m 9,2 C 20,6 C 0,0 km/h (0 Bft) 0,00 %
19.09.2015 15:58 20,8 C 46 % 1019,1 hPa 0,0 l/m 0,0 km/h (0 Bft) O-NO 61 0 min 0,000 mm 1,0 UV-I 198 W/m 8,8 C 20,8 C 0,0 km/h (0 Bft) 0,00 %
19.09.2015 16:03 21,0 C 48 % 1019,0 hPa 0,0 l/m 0,0 km/h (0 Bft) O-NO 69 0 min 0,000 mm 1,0 UV-I 204 W/m 9,6 C 21,0 C 0,0 km/h (0 Bft) 0,00 %
19.09.2015 16:08 21,1 C 45 % 1019,0 hPa 0,0 l/m 0,0 km/h (0 Bft) S 175 0 min 0,000 mm 1,0 UV-I 214 W/m 8,7 C 21,1 C 0,0 km/h (0 Bft) 0,00 %
19.09.2015 16:13 21,0 C 47 % 1018,9 hPa 0,0 l/m 0,0 km/h (0 Bft) O 84 0 min 0,000 mm 1,0 UV-I 197 W/m 9,3 C 21,0 C 0,0 km/h (0 Bft) 0,00 %
19.09.2015 16:18 21,0 C 45 % 1018,8 hPa 0,0 l/m 0,0 km/h (0 Bft) O-NO 64 0 min 0,000 mm 1,0 UV-I 174 W/m 8,6 C 21,0 C 0,0 km/h (0 Bft) 0,00 %
19.09.2015 16:23 20,9 C 46 % 1018,9 hPa 0,0 l/m 0,0 km/h (0 Bft) O-SO 104 0 min 0,000 mm 1,0 UV-I 160 W/m 8,8 C 20,9 C 0,0 km/h (0 Bft) 0,00 %
19.09.2015 16:28 20,8 C 47 % 1018,9 hPa 0,0 l/m 0,0 km/h (0 Bft) O-NO 67 0 min 0,000 mm 1,0 UV-I 148 W/m 9,1 C 20,8 C 0,0 km/h (0 Bft) 0,00 %
19.09.2015 16:33 20,6 C 50 % 1019,0 hPa 0,0 l/m 0,0 km/h (0 Bft) O-NO 60 0 min 0,000 mm 1,0 UV-I 131 W/m 9,8 C 20,6 C 0,0 km/h (0 Bft) 0,00 %
19.09.2015 16:38 20,4 C 49 % 1019,0 hPa 0,0 l/m 3,2 km/h (1 Bft) S-SW 205 0 min 0,000 mm 1,0 UV-I 116 W/m 9,3 C 20,4 C 7,9 km/h (2 Bft) 0,00 %
19.09.2015 16:43 20,2 C 50 % 1019,1 hPa 0,0 l/m 0,7 km/h (0 Bft) SO 132 0 min 0,000 mm 1,0 UV-I 103 W/m 9,4 C 20,2 C 4,0 km/h (1 Bft) 0,00 %
19.09.2015 16:48 20,0 C 52 % 1019,0 hPa 0,0 l/m 0,0 km/h (0 Bft) O-NO 70 0 min 0,000 mm 1,0 UV-I 106 W/m 9,8 C 20,0 C 0,0 km/h (0 Bft) 0,00 %
19.09.2015 16:53 19,9 C 53 % 1019,0 hPa 0,0 l/m 0,0 km/h (0 Bft) O 80 0 min 0,000 mm 0,0 UV-I 107 W/m 10,0 C 19,9 C 0,0 km/h (0 Bft) 0,00 %
19.09.2015 16:58 19,8 C 55 % 1018,8 hPa 0,0 l/m 0,0 km/h (0 Bft) O-SO 114 0 min 0,000 mm 0,0 UV-I 86 W/m 10,5 C 19,8 C 0,0 km/h (0 Bft) 0,00 %
19.09.2015 17:03 19,7 C 54 % 1019,1 hPa 0,0 l/m 1,4 km/h (1 Bft) S-SO 156 0 min 0,000 mm 0,0 UV-I 87 W/m 10,1 C 19,7 C 4,0 km/h (1 Bft) 0,00 %
19.09.2015 17:08 19,6 C 54 % 1019,3 hPa 0,0 l/m 0,0 km/h (0 Bft) SO 127 0 min 0,000 mm 0,0 UV-I 71 W/m 10,0 C 19,6 C 0,0 km/h (0 Bft) 0,00 %
19.09.2015 17:13 19,4 C 55 % 1019,5 hPa 0,0 l/m 0,0 km/h (0 Bft) O-SO 110 0 min 0,000 mm 0,0 UV-I 58 W/m 10,1 C 19,4 C 0,0 km/h (0 Bft) 0,00 %
19.09.2015 17:18 19,2 C 55 % 1019,7 hPa 0,0 l/m 0,0 km/h (0 Bft) O 90 0 min 0,000 mm 0,0 UV-I 64 W/m 9,9 C 19,2 C 0,0 km/h (0 Bft) 0,00 %
19.09.2015 17:23 19,0 C 57 % 1019,8 hPa 0,0 l/m 0,0 km/h (0 Bft) O-SO 121 0 min 0,000 mm 0,0 UV-I 48 W/m 10,3 C 19,0 C 0,0 km/h (0 Bft) 0,00 %
19.09.2015 17:28 18,9 C 57 % 1019,6 hPa 0,0 l/m 0,0 km/h (0 Bft) W-NW 292 0 min 0,000 mm 0,0 UV-I 57 W/m 10,2 C 18,9 C 0,0 km/h (0 Bft) 0,00 %
19.09.2015 17:33 18,7 C 58 % 1019,6 hPa 0,0 l/m 0,0 km/h (0 Bft) SO 137 0 min 0,000 mm 0,0 UV-I 84 W/m 10,3 C 18,7 C 0,0 km/h (0 Bft) 0,00 %
19.09.2015 17:38 18,6 C 58 % 1019,7 hPa 0,0 l/m 0,7 km/h (0 Bft) S-SW 192 0 min 0,000 mm 0,0 UV-I 89 W/m 10,2 C 18,6 C 4,0 km/h (1 Bft) 0,00 %
19.09.2015 17:43 18,6 C 59 % 1019,8 hPa 0,0 l/m 0,0 km/h (0 Bft) S-SO 157 0 min 0,000 mm 0,0 UV-I 76 W/m 10,4 C 18,6 C 0,0 km/h (0 Bft) 0,00 %
19.09.2015 17:48 18,6 C 59 % 1019,9 hPa 0,0 l/m 1,8 km/h (1 Bft) W-SW 246 0 min 0,000 mm 0,0 UV-I 52 W/m 10,4 C 18,6 C 4,0 km/h (1 Bft) 0,00 %
19.09.2015 17:53 18,6 C 60 % 1020,0 hPa 0,0 l/m 4,0 km/h (1 Bft) S-SO 166 0 min 0,000 mm 0,0 UV-I 30 W/m 10,7 C 18,6 C 4,0 km/h (1 Bft) 0,00 %
19.09.2015 17:58 18,5 C 61 % 1019,9 hPa 0,0 l/m 0,0 km/h (0 Bft) SO 132 0 min 0,000 mm 0,0 UV-I 32 W/m 10,8 C 18,5 C 0,0 km/h (0 Bft) 0,00 %
19.09.2015 18:03 18,3 C 61 % 1020,1 hPa 0,0 l/m 0,0 km/h (0 Bft) O-NO 75 0 min 0,000 mm 0,0 UV-I 29 W/m 10,6 C 18,3 C 0,0 km/h (0 Bft) 0,00 %
19.09.2015 18:08 18,2 C 61 % 1020,1 hPa 0,0 l/m 0,0 km/h (0 Bft) S 190 0 min 0,000 mm 0,0 UV-I 26 W/m 10,6 C 18,2 C 0,0 km/h (0 Bft) 0,00 %
19.09.2015 18:13 18,0 C 62 % 1020,0 hPa 0,0 l/m 0,0 km/h (0 Bft) NO 42 0 min 0,000 mm 0,0 UV-I 26 W/m 10,6 C 18,0 C 0,0 km/h (0 Bft) 0,00 %
19.09.2015 18:18 17,8 C 63 % 1020,1 hPa 0,0 l/m 0,0 km/h (0 Bft) SO 132 0 min 0,000 mm 0,0 UV-I 20 W/m 10,7 C 17,8 C 0,0 km/h (0 Bft) 0,00 %
19.09.2015 18:23 17,7 C 63 % 1020,2 hPa 0,0 l/m 0,0 km/h (0 Bft) W-SW 256 0 min 0,000 mm 0,0 UV-I 17 W/m 10,6 C 17,7 C 0,0 km/h (0 Bft) 0,00 %
19.09.2015 18:28 17,6 C 63 % 1020,0 hPa 0,0 l/m 0,0 km/h (0 Bft) O-SO 122 0 min 0,000 mm 0,0 UV-I 18 W/m 10,5 C 17,6 C 0,0 km/h (0 Bft) 0,00 %
19.09.2015 18:33 17,4 C 64 % 1020,1 hPa 0,0 l/m 0,0 km/h (0 Bft) O-SO 110 0 min 0,000 mm 0,0 UV-I 17 W/m 10,5 C 17,4 C 0,0 km/h (0 Bft) 0,00 %
19.09.2015 18:38 17,4 C 65 % 1020,1 hPa 0,0 l/m 0,0 km/h (0 Bft) O 101 0 min 0,000 mm 0,0 UV-I 7 W/m 10,8 C 17,4 C 0,0 km/h (0 Bft) 0,00 %
19.09.2015 18:43 17,3 C 66 % 1020,2 hPa 0,0 l/m 0,0 km/h (0 Bft) O-NO 59 0 min 0,000 mm 0,0 UV-I 3 W/m 10,9 C 17,3 C 0,0 km/h (0 Bft) 0,00 %
19.09.2015 18:48 17,1 C 66 % 1019,9 hPa 0,0 l/m 0,0 km/h (0 Bft) O 90 0 min 0,000 mm 0,0 UV-I 3 W/m 10,7 C 17,1 C 0,0 km/h (0 Bft) 0,00 %
19.09.2015 18:53 17,0 C 68 % 1020,0 hPa 0,0 l/m 0,7 km/h (0 Bft) SW 215 0 min 0,000 mm 0,0 UV-I 0 W/m 11,0 C 17,0 C 4,0 km/h (1 Bft) 0,00 %
19.09.2015 18:58 16,9 C 68 % 1020,2 hPa 0,0 l/m 0,0 km/h (0 Bft) O 86 0 min 0,000 mm 0,0 UV-I 0 W/m 11,0 C 16,9 C 0,0 km/h (0 Bft) 0,00 %
19.09.2015 19:03 16,7 C 69 % 1020,1 hPa 0,0 l/m 0,0 km/h (0 Bft) O-NO 63 0 min 0,000 mm 0,0 UV-I 0 W/m 11,0 C 16,7 C 0,0 km/h (0 Bft) 0,00 %
19.09.2015 19:08 16,5 C 69 % 1019,9 hPa 0,0 l/m 0,0 km/h (0 Bft) NO 54 0 min 0,000 mm 0,0 UV-I 0 W/m 10,8 C 16,5 C 0,0 km/h (0 Bft) 0,00 %
19.09.2015 19:13 16,4 C 70 % 1019,9 hPa 0,0 l/m 0,0 km/h (0 Bft) O-SO 113 0 min 0,000 mm 0,0 UV-I 0 W/m 10,9 C 16,4 C 0,0 km/h (0 Bft) 0,00 %
19.09.2015 19:18 16,3 C 70 % 1020,0 hPa 0,0 l/m 0,0 km/h (0 Bft) SW 220 0 min 0,000 mm 0,0 UV-I 0 W/m 10,8 C 16,3 C 0,0 km/h (0 Bft) 0,00 %
19.09.2015 19:23 16,2 C 69 % 1020,0 hPa 0,0 l/m 0,4 km/h (0 Bft) S-SO 162 0 min 0,000 mm 0,0 UV-I 0 W/m 10,5 C 16,2 C 4,0 km/h (1 Bft) 0,00 %
19.09.2015 19:28 16,2 C 70 % 1020,1 hPa 0,0 l/m 2,2 km/h (1 Bft) W-SW 252 0 min 0,000 mm 0,0 UV-I 0 W/m 10,7 C 16,2 C 4,0 km/h (1 Bft) 0,00 %
19.09.2015 19:33 16,2 C 70 % 1020,1 hPa 0,0 l/m 0,4 km/h (0 Bft) S 176 0 min 0,000 mm 0,0 UV-I 0 W/m 10,7 C 16,2 C 4,0 km/h (1 Bft) 0,00 %
19.09.2015 19:38 16,1 C 70 % 1019,9 hPa 0,0 l/m 0,7 km/h (0 Bft) S-SW 210 0 min 0,000 mm 0,0 UV-I 0 W/m 10,6 C 16,1 C 4,0 km/h (1 Bft) 0,00 %
19.09.2015 19:43 16,0 C 71 % 1019,9 hPa 0,0 l/m 2,9 km/h (1 Bft) SW 223 0 min 0,000 mm 0,0 UV-I 0 W/m 10,7 C 16,0 C 4,0 km/h (1 Bft) 0,00 %
19.09.2015 19:48 16,0 C 72 % 1019,9 hPa 0,0 l/m 0,0 km/h (0 Bft) NO 43 0 min 0,000 mm 0,0 UV-I 0 W/m 11,0 C 16,0 C 0,0 km/h (0 Bft) 0,00 %
19.09.2015 19:56 15,9 C 73 % 1019,7 hPa 0,0 l/m 0,7 km/h (0 Bft) S 175 0 min 0,000 mm 0,0 UV-I 0 W/m 11,1 C 15,9 C 4,0 km/h (1 Bft) 0,00 %
19.09.2015 20:01 15,8 C 73 % 1019,7 hPa 0,0 l/m 0,0 km/h (0 Bft) SO 128 0 min 0,000 mm 0,0 UV-I 0 W/m 11,0 C 15,8 C 0,0 km/h (0 Bft) 0,00 %
19.09.2015 20:06 15,8 C 73 % 1019,7 hPa 0,0 l/m 0,0 km/h (0 Bft) S 186 0 min 0,000 mm 0,0 UV-I 0 W/m 11,0 C 15,8 C 0,0 km/h (0 Bft) 0,00 %
19.09.2015 20:11 15,7 C 74 % 1019,8 hPa 0,0 l/m 0,0 km/h (0 Bft) O 94 0 min 0,000 mm 0,0 UV-I 0 W/m 11,1 C 15,7 C 0,0 km/h (0 Bft) 0,00 %
19.09.2015 20:16 15,7 C 74 % 1019,8 hPa 0,0 l/m 0,7 km/h (0 Bft) SO 131 0 min 0,000 mm 0,0 UV-I 0 W/m 11,1 C 15,7 C 4,0 km/h (1 Bft) 0,00 %
19.09.2015 20:21 15,7 C 74 % 1020,2 hPa 0,0 l/m 2,2 km/h (1 Bft) S-SW 207 0 min 0,000 mm 0,0 UV-I 0 W/m 11,1 C 15,7 C 4,0 km/h (1 Bft) 0,00 %
19.09.2015 20:26 15,7 C 75 % 1020,2 hPa 0,0 l/m 0,7 km/h (0 Bft) SW 230 0 min 0,000 mm 0,0 UV-I 0 W/m 11,3 C 15,7 C 4,0 km/h (1 Bft) 0,00 %
19.09.2015 20:31 15,6 C 75 % 1020,2 hPa 0,0 l/m 0,0 km/h (0 Bft) O-NO 61 0 min 0,000 mm 0,0 UV-I 0 W/m 11,2 C 15,6 C 0,0 km/h (0 Bft) 0,00 %
19.09.2015 20:36 15,6 C 75 % 1020,1 hPa 0,0 l/m 0,4 km/h (0 Bft) SO 135 0 min 0,000 mm 0,0 UV-I 0 W/m 11,2 C 15,6 C 4,0 km/h (1 Bft) 0,00 %
19.09.2015 20:41 15,5 C 75 % 1020,4 hPa 0,0 l/m 1,8 km/h (1 Bft) SO 127 0 min 0,000 mm 0,0 UV-I 0 W/m 11,1 C 15,5 C 4,0 km/h (1 Bft) 0,00 %
19.09.2015 20:46 15,5 C 75 % 1020,2 hPa 0,0 l/m 0,7 km/h (0 Bft) S 186 0 min 0,000 mm 0,0 UV-I 0 W/m 11,1 C 15,5 C 4,0 km/h (1 Bft) 0,00 %
19.09.2015 20:51 15,4 C 76 % 1019,9 hPa 0,0 l/m 0,4 km/h (0 Bft) O-SO 105 0 min 0,000 mm 0,0 UV-I 0 W/m 11,2 C 15,4 C 4,0 km/h (1 Bft) 0,00 %
19.09.2015 20:56 15,4 C 76 % 1020,0 hPa 0,0 l/m 0,4 km/h (0 Bft) S 171 0 min 0,000 mm 0,0 UV-I 0 W/m 11,2 C 15,4 C 4,0 km/h (1 Bft) 0,00 %
19.09.2015 21:01 15,4 C 76 % 1019,6 hPa 0,0 l/m 0,0 km/h (0 Bft) SO 136 0 min 0,000 mm 0,0 UV-I 0 W/m 11,2 C 15,4 C 0,0 km/h (0 Bft) 0,00 %
19.09.2015 21:06 15,3 C 76 % 1019,7 hPa 0,0 l/m 0,0 km/h (0 Bft) SW 216 0 min 0,000 mm 0,0 UV-I 0 W/m 11,1 C 15,3 C 0,0 km/h (0 Bft) 0,00 %
19.09.2015 21:11 15,3 C 77 % 1019,9 hPa 0,0 l/m 1,4 km/h (1 Bft) S-SW 200 0 min 0,000 mm 0,0 UV-I 0 W/m 11,3 C 15,3 C 4,0 km/h (1 Bft) 0,00 %
19.09.2015 21:16 15,2 C 77 % 1019,9 hPa 0,0 l/m 0,0 km/h (0 Bft) S 185 0 min 0,000 mm 0,0 UV-I 0 W/m 11,2 C 15,2 C 0,0 km/h (0 Bft) 0,00 %
19.09.2015 21:21 15,2 C 76 % 1019,9 hPa 0,0 l/m 0,0 km/h (0 Bft) O 95 0 min 0,000 mm 0,0 UV-I 0 W/m 11,0 C 15,2 C 0,0 km/h (0 Bft) 0,00 %
19.09.2015 21:26 15,2 C 76 % 1020,4 hPa 0,0 l/m 1,4 km/h (1 Bft) S 185 0 min 0,000 mm 0,0 UV-I 0 W/m 11,0 C 15,2 C 4,0 km/h (1 Bft) 0,00 %
19.09.2015 21:31 15,2 C 76 % 1020,1 hPa 0,0 l/m 0,0 km/h (0 Bft) W-SW 256 0 min 0,000 mm 0,0 UV-I 0 W/m 11,0 C 15,2 C 0,0 km/h (0 Bft) 0,00 %
19.09.2015 21:36 15,3 C 77 % 1020,4 hPa 0,0 l/m 0,0 km/h (0 Bft) NO 40 0 min 0,000 mm 0,0 UV-I 0 W/m 11,3 C 15,3 C 0,0 km/h (0 Bft) 0,00 %
19.09.2015 21:41 15,3 C 77 % 1020,2 hPa 0,0 l/m 6,8 km/h (2 Bft) W-SW 256 0 min 0,000 mm 0,0 UV-I 0 W/m 11,3 C 15,1 C 7,9 km/h (2 Bft) 0,00 %
19.09.2015 21:46 15,3 C 77 % 1020,2 hPa 0,0 l/m 2,9 km/h (1 Bft) S 184 0 min 0,000 mm 0,0 UV-I 0 W/m 11,3 C 15,3 C 4,0 km/h (1 Bft) 0,00 %
19.09.2015 21:51 15,2 C 78 % 1020,6 hPa 0,0 l/m 5,4 km/h (1 Bft) S-SO 152 0 min 0,000 mm 0,0 UV-I 0 W/m 11,4 C 15,2 C 7,9 km/h (2 Bft) 0,00 %
19.09.2015 21:56 15,2 C 79 % 1020,5 hPa 0,0 l/m 0,0 km/h (0 Bft) O-SO 119 0 min 0,000 mm 0,0 UV-I 0 W/m 11,6 C 15,2 C 0,0 km/h (0 Bft) 0,00 %
19.09.2015 22:01 15,1 C 79 % 1020,4 hPa 0,0 l/m 0,0 km/h (0 Bft) NO 52 0 min 0,000 mm 0,0 UV-I 0 W/m 11,5 C 15,1 C 0,0 km/h (0 Bft) 0,00 %
19.09.2015 22:06 15,1 C 79 % 1020,5 hPa 0,0 l/m 1,4 km/h (1 Bft) W-SW 256 0 min 0,000 mm 0,0 UV-I 0 W/m 11,5 C 15,1 C 4,0 km/h (1 Bft) 0,00 %
19.09.2015 22:11 15,1 C 79 % 1020,0 hPa 0,0 l/m 1,4 km/h (1 Bft) S 187 0 min 0,000 mm 0,0 UV-I 0 W/m 11,5 C 15,1 C 4,0 km/h (1 Bft) 0,00 %
19.09.2015 22:16 15,1 C 79 % 1020,5 hPa 0,0 l/m 1,4 km/h (1 Bft) S 180 0 min 0,000 mm 0,0 UV-I 0 W/m 11,5 C 15,1 C 4,0 km/h (1 Bft) 0,00 %
19.09.2015 22:21 15,1 C 80 % 1020,5 hPa 0,0 l/m 1,4 km/h (1 Bft) S-SW 201 0 min 0,000 mm 0,0 UV-I 0 W/m 11,7 C 15,1 C 4,0 km/h (1 Bft) 0,00 %
19.09.2015 22:26 15,0 C 81 % 1020,5 hPa 0,0 l/m 4,0 km/h (1 Bft) SW 218 0 min 0,000 mm 0,0 UV-I 0 W/m 11,8 C 15,0 C 7,9 km/h (2 Bft) 0,00 %
19.09.2015 22:31 15,0 C 82 % 1020,6 hPa 0,0 l/m 2,2 km/h (1 Bft) W-SW 251 0 min 0,000 mm 0,0 UV-I 0 W/m 12,0 C 15,0 C 4,0 km/h (1 Bft) 0,00 %
19.09.2015 22:36 14,9 C 84 % 1020,6 hPa 0,0 l/m 0,4 km/h (0 Bft) S-SO 147 0 min 0,000 mm 0,0 UV-I 0 W/m 12,2 C 14,9 C 4,0 km/h (1 Bft) 0,00 %
19.09.2015 22:41 14,8 C 84 % 1020,7 hPa 0,0 l/m 4,3 km/h (1 Bft) S 181 0 min 0,000 mm 0,0 UV-I 0 W/m 12,1 C 14,8 C 7,9 km/h (2 Bft) 0,00 %
19.09.2015 22:46 14,6 C 84 % 1020,6 hPa 0,0 l/m 2,9 km/h (1 Bft) S 177 0 min 0,000 mm 0,0 UV-I 0 W/m 11,9 C 14,6 C 4,0 km/h (1 Bft) 0,00 %
19.09.2015 22:51 14,6 C 85 % 1020,6 hPa 0,0 l/m 3,2 km/h (1 Bft) SO 146 0 min 0,000 mm 0,0 UV-I 0 W/m 12,1 C 14,6 C 4,0 km/h (1 Bft) 0,00 %
19.09.2015 22:56 14,5 C 85 % 1020,8 hPa 0,0 l/m 1,8 km/h (1 Bft) S-SW 203 0 min 0,000 mm 0,0 UV-I 0 W/m 12,0 C 14,5 C 4,0 km/h (1 Bft) 0,00 %
19.09.2015 23:01 14,4 C 85 % 1020,8 hPa 0,0 l/m 5,8 km/h (2 Bft) S-SW 205 0 min 0,000 mm 0,0 UV-I 0 W/m 11,9 C 14,4 C 7,9 km/h (2 Bft) 0,00 %
19.09.2015 23:06 14,4 C 85 % 1020,5 hPa 0,0 l/m 1,4 km/h (1 Bft) O-SO 118 0 min 0,000 mm 0,0 UV-I 0 W/m 11,9 C 14,4 C 4,0 km/h (1 Bft) 0,00 %
19.09.2015 23:11 14,4 C 86 % 1020,7 hPa 0,0 l/m 0,0 km/h (0 Bft) S-SO 166 0 min 0,000 mm 0,0 UV-I 0 W/m 12,1 C 14,4 C 0,0 km/h (0 Bft) 0,00 %
19.09.2015 23:16 14,4 C 85 % 1020,6 hPa 0,0 l/m 1,8 km/h (1 Bft) O 99 0 min 0,000 mm 0,0 UV-I 0 W/m 11,9 C 14,4 C 4,0 km/h (1 Bft) 0,00 %
19.09.2015 23:21 14,4 C 85 % 1020,6 hPa 0,0 l/m 3,2 km/h (1 Bft) S 176 0 min 0,000 mm 0,0 UV-I 0 W/m 11,9 C 14,4 C 4,0 km/h (1 Bft) 0,00 %
19.09.2015 23:26 14,4 C 85 % 1020,7 hPa 0,0 l/m 0,0 km/h (0 Bft) O-NO 65 0 min 0,000 mm 0,0 UV-I 0 W/m 11,9 C 14,4 C 0,0 km/h (0 Bft) 0,00 %
19.09.2015 23:31 14,3 C 85 % 1020,9 hPa 0,0 l/m 0,0 km/h (0 Bft) N-NO 31 0 min 0,000 mm 0,0 UV-I 0 W/m 11,8 C 14,3 C 0,0 km/h (0 Bft) 0,00 %
19.09.2015 23:36 14,3 C 86 % 1020,8 hPa 0,0 l/m 0,0 km/h (0 Bft) O 85 0 min 0,000 mm 0,0 UV-I 0 W/m 12,0 C 14,3 C 0,0 km/h (0 Bft) 0,00 %
19.09.2015 23:41 14,2 C 88 % 1020,8 hPa 0,3 l/m 0,0 km/h (0 Bft) O-SO 117 0 min 0,000 mm 0,0 UV-I 0 W/m 12,2 C 14,2 C 0,0 km/h (0 Bft) 0,00 %
19.09.2015 23:46 14,2 C 89 % 1020,7 hPa 0,0 l/m 0,7 km/h (0 Bft) SO 137 0 min 0,000 mm 0,0 UV-I 0 W/m 12,4 C 14,2 C 4,0 km/h (1 Bft) 0,00 %
19.09.2015 23:51 14,0 C 90 % 1020,6 hPa 0,0 l/m 0,0 km/h (0 Bft) SW 225 0 min 0,000 mm 0,0 UV-I 0 W/m 12,4 C 14,0 C 0,0 km/h (0 Bft) 0,00 %
19.09.2015 23:56 13,9 C 91 % 1020,7 hPa 0,0 l/m 0,0 km/h (0 Bft) S-SW 195 0 min 0,000 mm 0,0 UV-I 0 W/m 12,5 C 13,9 C 0,0 km/h (0 Bft) 0,00 %
_ Min-Zeit 07:07 14:33 16:18 - 00:02 - - - - - - 14:33 07:07 00:02 00:02
Minimum _ 8,7 C 43 % 1018,8 hPa - 0,0 km/h (0 Bft) - - - - - - 7,8 C 8,7 C 0,0 km/h (0 Bft) 0,00 %
_ Max-Zeit 14:48 04:47 09:47 23:41 21:41 - - 13:08 00:02 13:02 14:03 23:56 14:48 11:57 00:02
Maximum _ 22,1 C 99 % 1023,0 hPa 0,3 l/m 6,8 km/h
W-SW (2 Bft)
- - 6 min 0,000 mm 3,0 UV-I 898 W/m 12,5 C 22,1 C 7,9 km/h
N (2 Bft)
0,00 %
Durchschnitt _ 15,0 C 76 % 1021,1 hPa #0,3 l/m 0,4 km/h (0 Bft) S - #3:36 h #0,000 mm 1,4 UV-I 251 W/m 10,3 C 15,0 C 1,1 km/h (0 Bft) 0,00 %